Regional Weather Roundup
Issued by NWS Upton, NY

Current Version | Previous Version | Text Only | Print | Product List | Glossary On
Versions: 1 2 3 4 5 6 7 8 9 10 11 12 13 14 15 16 17 18 19 20 21 22 23 24 25 26 27 28 29 30 31 32 33 34 35 36 37 38 39 40 41 42 43 44 45 46 47 48
000
ASUS41 KOKX 012205
RWROKX

REGIONAL WEATHER ROUNDUP
NATIONAL WEATHER SERVICE NEW YORK NY
600 PM EDT FRI AUG 01 2014

NOTE: "FAIR" INDICATES FEW OR NO CLOUDS BELOW 12,000 FEET WITH NO
SIGNIFICANT WEATHER AND/OR OBSTRUCTIONS TO VISIBILITY.

NYZ071-072-176-178-NJZ106-104-012300-
NEW YORK CITY METRO AREA


CITY           SKY/WX    TMP DP  RH WIND       PRES   REMARKS
CENTRAL PARK   CLOUDY    76  66  71 VRB3      30.23F
LAGUARDIA APRT CLOUDY    78  66  66 S10       30.19F
KENNEDY INTL   CLOUDY    75  70  84 S10       30.22F
NEWARK/LIBERTY LGT RAIN  76  68  76 S6        30.20F
BRNX BOT. GARD   N/A     75  64  69 NE5       30.22F
TETERBORO      LGT RAIN  77  66  68 S5        30.19F
$$

NYZ177-179-078>081-012300-
LONG ISLAND NEW YORK

CITY           SKY/WX    TMP DP  RH WIND       PRES   REMARKS
FARMINGDALE    CLOUDY    75  67  76 SW10      30.21F
ISLIP          CLOUDY    77  64  64 S7        30.21S
SHIRLEY        CLOUDY    75  68  78 S6        30.23S
WESTHAMPTON    CLOUDY    75  66  73 S6        30.24S
MONTAUK POINT    N/A     74  69  85 S6        30.25R
$$

NYZ052-065-067-012300-
HUDSON VALLEY

CITY           SKY/WX    TMP DP  RH WIND       PRES   REMARKS
WHITE PLAINS   CLOUDY    74  68  81 S9        30.20F
NEWBURGH       PTSUNNY   73  66  78 SE6       30.21
MONTGOMERY     CLOUDY    73  63  70 SE5       30.20S
POUGHKEEPSIE   CLOUDY    70  66  87 S3        30.19F
ALBANY         CLOUDY    81  65  58 S12       30.14S
$$

NJZ001-105-106-008-010-013-015-019>022-104-012300-
NEW JERSEY

CITY           SKY/WX    TMP DP  RH WIND       PRES   REMARKS
NEWARK/LIBERTY LGT RAIN  76  68  76 S6        30.20F
TETERBORO      LGT RAIN  77  66  68 S5        30.19F
CALDWELL       CLOUDY    72  66  81 CALM      30.21F
MORRISTOWN     PTSUNNY   72  68  88 CALM      30.21F
SOMERVILLE     CLOUDY    71  67  87 CALM      30.19S
LINDEN         FAIR      78  70  76 S5        30.21F
SUSSEX         CLOUDY    76  63  64 SE7       30.20F
ANDOVER          N/A     73  63  70 CALM      30.20F
TRENTON        LGT RAIN  71  67  87 SW5       30.19F
MILLVILLE      LGT RAIN  76  65  68 SE5       30.19F
ATLANTIC CITY  CLOUDY    74  63  68 SE5       30.19F
WRIGHTSTOWN    CLOUDY    73  70  93 SE2       30.18S
TOMS RIVER     CLOUDY    75  72  88 CALM      30.21S
BELMAR         CLOUDY    73  66  78 S3        30.20F
$$

PAZ047>061-062-071-012300-
EASTERN PENNSYLVANIA

CITY           SKY/WX    TMP DP  RH WIND       PRES   REMARKS
PHILADELPHIA   CLOUDY    73  67  81 SE6       30.19S
ALLENTOWN      CLOUDY    72  63  73 S10G25    30.20R
SCRANTON       CLOUDY    72  66  81 E3        30.16F
$$

CTZ002-004>006-009-010-012-RIZ004-006-007-MAZ004-011-015-012300-
SOUTHERN NEW ENGLAND
 IN CT

CITY           SKY/WX    TMP DP  RH WIND       PRES   REMARKS
BRADLEY INTL   CLOUDY    76  67  73 S15G23    30.19S
HARTFORD       CLOUDY    77  65  66 S17       30.20R
DANBURY        CLOUDY    75  66  73 S9        30.23S
WTRBRY/OXFORD  PTSUNNY   73  66  78 S12G17    30.25R
BRIDGEPORT     CLOUDY    77  69  76 SW8       30.22R
MERIDEN        CLOUDY    77  67  71 S14       30.22R
NEW HAVEN      CLOUDY    78  68  71 S8        30.22S
CHESTER        FAIR      73  66  78 S6        30.24S
GROTON         CLOUDY    72  69  90 S6        30.22S
WILLIMANTIC    CLOUDY    75  66  73 S12       30.22R

 IN RI

CITY           SKY/WX    TMP DP  RH WIND       PRES   REMARKS
PROVIDENCE     CLOUDY    76  65  68 S12       30.22S
BLOCK ISLAND   CLOUDY    73  66  78 S9        30.24S
WESTERLY       CLOUDY    75  68  78 S7        30.24S

 IN MA

CITY           SKY/WX    TMP DP  RH WIND       PRES   REMARKS
BOSTON         CLOUDY    79  63  57 S14       30.20R
WORCESTER      CLOUDY    72  63  73 SW12      30.23R
WESTFIELD      CLOUDY    74  63  68 S14G22    30.19R
PROVINCETOWN   PTSUNNY   73  64  73 S13       30.23S
NANTUCKET      CLOUDY    70  62  76 S5        30.24S
$$

ANZ330-335-338-340-345-350-353-355-012300-
COASTAL MARINE OBSERVATIONS


STATION/POSITION TIME  SKY/WX   TEMP    WIND        PRES    VSBY  WAVE
                                AIR SEA DIR/SP/G                  HT/PER
                 (UTC)          (F)     (DEG/KT/KT) (MB)    (MI)  (FT/S)
NY HARB ENTRANCE NOT AVBL
4S FIRE IS       NOT AVBL
23SW MTP         2200            72 71              1023.1          3/ 7
HUDSON CANYON    2200            75 75  120/  8/ 10 1022.7          3/ 7
EXECUTION ROCKS  2200            74 71  220/ 10/ 12   N/A
WESTERN LI SOUND 2200            75     190/  8/ 10   N/A           1
CENTRAL LI SOUND 2100            74 73  190/ 12/ 14   N/A           1/ 2
EASTERN LI SOUND 2100            71 67  180/  6/  8   N/A
ROBBINS REEF     2200            75     170/  9/ 10   N/A
$$


>>>>>>>>>>>>>>>>>>>>>>>>>>>> KEY <<<<<<<<<<<<<<<<<<<<<<<<<<<
>                                                          <
>     SKY/WX - SKY CONDITION/PRESENT WEATHER               <
>     TMP    - TEMPERATURE IN FAHRENHEIT                   <
>     DP     - DEWPOINT IN FAHRENHEIT                      <
>     RH     - RELATIVE HUMIDITY IN PERCENT                <
>     WIND   - DIRECTION AND SPEED IN MPH                  <
>     PRES   - MEAN SEA LEVEL PRESSURE IN INCHES OF HG     <
>     WCI    - WIND CHILL INDEX                            <
>     VSB    - VISIBILITY IN MILES                         <
>     HX     - HEAT INDEX                                  <
>     TC     - TEMPERATURE IN CELSIUS                      <
>     VRB    - VARIABLE WIND DIRECTION                     <
>                                                          <
>>>>>>>>>>>>>>>>>>>>>>>>>>>> KEY <<<<<<<<<<<<<<<<<<<<<<<<<<<




USA.gov is the U.S. government's official web portal to all federal, state and local government web resources and services.